TimeAKDT,TemperatureF,Dew PointF,Humidity,Sea Level PressureIn,VisibilityMPH,Wind Direction,Wind SpeedMPH,Gust SpeedMPH,PrecipitationIn,Events,Conditions,WindDirDegrees,DateUTC
12:36 AM,39.2,37.4,93,29.39,10.0,East,8.1,-,0.00,Rain,Light Rain,100,2011-11-05 08:36:00
12:53 AM,39.9,37.0,89,29.39,10.0,East,5.8,-,0.00,Rain,Light Rain,90,2011-11-05 08:53:00
1:28 AM,39.2,37.4,93,29.40,10.0,East,5.8,-,0.00,,Overcast,100,2011-11-05 09:28:00
1:53 AM,39.9,37.0,89,29.40,10.0,East,6.9,-,0.00,,Overcast,100,2011-11-05 09:53:00
2:28 AM,39.2,37.4,93,29.40,10.0,East,5.8,-,N/A,,Overcast,100,2011-11-05 10:28:00
2:53 AM,39.9,37.9,93,29.41,10.0,ESE,4.6,-,0.00,Rain,Light Rain,120,2011-11-05 10:53:00
3:53 AM,39.0,37.9,96,29.42,10.0,East,5.8,-,0.02,Rain,Light Rain,80,2011-11-05 11:53:00
4:04 AM,39.2,37.4,93,29.42,10.0,East,4.6,-,0.00,Rain,Light Rain,90,2011-11-05 12:04:00
4:17 AM,39.2,37.4,93,29.42,10.0,East,3.5,-,0.00,Rain,Light Rain,100,2011-11-05 12:17:00
4:53 AM,39.9,39.0,97,29.44,10.0,Calm,Calm,-,0.00,Rain,Light Rain,0,2011-11-05 12:53:00
5:53 AM,39.9,37.9,93,29.45,10.0,ENE,3.5,-,0.04,Rain,Light Rain,60,2011-11-05 13:53:00
6:18 AM,39.2,39.2,100,29.46,10.0,East,4.6,-,0.00,Rain,Light Rain,80,2011-11-05 14:18:00
6:53 AM,39.9,39.0,97,29.47,10.0,ESE,5.8,-,0.00,Rain,Light Rain,120,2011-11-05 14:53:00
7:53 AM,41.0,39.0,93,29.50,10.0,Calm,Calm,-,0.02,Rain,Light Rain,0,2011-11-05 15:53:00
8:53 AM,39.9,39.0,97,29.52,8.0,North,4.6,-,0.00,,Overcast,10,2011-11-05 16:53:00
9:53 AM,41.0,39.0,93,29.55,10.0,Calm,Calm,-,0.01,,Overcast,0,2011-11-05 17:53:00
10:10 AM,39.2,39.2,100,29.56,10.0,Calm,Calm,-,N/A,,Overcast,0,2011-11-05 18:10:00
10:21 AM,41.0,39.2,93,29.56,10.0,Calm,Calm,-,N/A,,Overcast,0,2011-11-05 18:21:00
10:30 AM,41.0,39.2,93,29.56,10.0,Calm,Calm,-,N/A,,Mostly Cloudy,0,2011-11-05 18:30:00
10:53 AM,41.0,39.9,96,29.58,10.0,Calm,Calm,-,N/A,,Overcast,0,2011-11-05 18:53:00
11:53 AM,43.0,39.0,86,29.60,10.0,Calm,Calm,-,N/A,,Overcast,0,2011-11-05 19:53:00
12:53 PM,42.1,39.0,89,29.62,10.0,ESE,5.8,-,N/A,,Overcast,120,2011-11-05 20:53:00
1:53 PM,43.0,39.0,86,29.63,3.0,SE,3.5,-,N/A,,Overcast,130,2011-11-05 21:53:00
2:53 PM,44.1,39.0,82,29.65,10.0,Calm,Calm,-,N/A,,Overcast,0,2011-11-05 22:53:00
3:53 PM,44.1,39.9,85,29.67,10.0,Calm,Calm,-,N/A,,Overcast,0,2011-11-05 23:53:00
4:53 PM,43.0,39.9,89,29.68,9.0,Calm,Calm,-,N/A,,Overcast,0,2011-11-06 00:53:00
5:53 PM,43.0,41.0,93,29.70,10.0,Calm,Calm,-,N/A,,Overcast,0,2011-11-06 01:53:00
6:53 PM,42.1,41.0,96,29.72,9.0,East,4.6,-,0.00,,Overcast,90,2011-11-06 02:53:00
7:05 PM,42.8,41.0,93,29.72,10.0,Calm,Calm,-,0.00,Rain,Light Rain,0,2011-11-06 03:05:00
7:53 PM,42.1,41.0,96,29.74,4.0,ESE,4.6,-,0.11,Rain,Heavy Rain,110,2011-11-06 03:53:00
8:19 PM,42.8,41.0,93,29.75,3.0,SE,4.6,-,0.02,Rain,Light Rain,130,2011-11-06 04:19:00
8:36 PM,42.8,41.0,93,29.75,5.0,ESE,5.8,-,0.02,,Overcast,110,2011-11-06 04:36:00
8:53 PM,42.1,41.0,96,29.75,3.0,East,5.8,-,0.03,Rain,Light Rain,80,2011-11-06 04:53:00
9:53 PM,41.0,41.0,100,29.77,4.0,East,4.6,-,0.05,Rain,Light Rain,100,2011-11-06 05:53:00
10:00 PM,41.0,41.0,100,29.77,8.0,East,4.6,-,0.00,Rain,Light Rain,100,2011-11-06 06:00:00
10:17 PM,41.0,39.2,93,29.77,10.0,East,4.6,-,0.00,,Overcast,100,2011-11-06 06:17:00
10:30 PM,41.0,39.2,93,29.77,10.0,East,5.8,-,0.00,,Overcast,100,2011-11-06 06:30:00
10:53 PM,41.0,39.9,96,29.78,10.0,East,4.6,-,0.00,,Overcast,90,2011-11-06 06:53:00
11:39 PM,41.0,39.2,93,29.79,7.0,East,4.6,-,N/A,,Overcast,100,2011-11-06 07:39:00
11:46 PM,41.0,39.2,93,29.79,4.0,East,4.6,-,0.00,Rain,Light Rain,100,2011-11-06 07:46:00
11:53 PM,41.0,39.9,96,29.79,3.0,ESE,4.6,-,0.00,Rain,Light Rain,110,2011-11-06 07:53:00